Lancaster, PA

4:02 PM EDT on July 23, 2017 (GMT -0400)
Lancaster

Weather History for KLNS - October, 2014

Change the Weather History Date:

Sunday, October 19, 2014

  Actual Average Record
Temperature  
Mean Temperature 46 °F -  
Max Temperature 54 °F 62 °F 86 °F (2016)
Min Temperature 39 °F 42 °F 28 °F (1986)
Degree Days  
Heating Degree Days 19    
Moisture  
Dew Point 34 °F    
Average Humidity 59    
Maximum Humidity 77    
Minimum Humidity 38    
Precipitation  
Precipitation 0.00 in - - ()
Sea Level Pressure  
Sea Level Pressure 29.98 in    
Wind  
Wind Speed 12 mph (NW)    
Max Wind Speed 20 mph    
Max Gust Speed 29 mph    
Visibility 10 miles    
Events Rain    
Averages and records for this station are not official NWS values.
T = Trace of Precipitation, MM = Missing Value Source: NWS Daily Summary

Daily Weather History Graph

Daily Weather History Graph

Search for Another Location

Airport or City:

Trip Planner

Search our weather history database for the weather conditions in past years. The results will help you decide how hot, cold, wet, or windy it might be!

Date:

Astronomy

Oct. 19, 2014 Rise Set
Actual Time 7:20 AM EDT 6:19 PM EDT
Civil Twilight 6:52 AM EDT 6:47 PM EDT
Nautical Twilight 6:20 AM EDT 7:18 PM EDT
Astronomical Twilight 5:49 AM EDT 7:50 PM EDT
Moon 3:10 AM EDT (10/19) 4:10 PM EDT (10/19)
Length of Visible Light 11h 54m
Length of Day
10h 59m
Waning Crescent, 17% of the Moon is Illuminated
Oct 19
Waning Crescent
Oct 23
New
Oct 30
First Quarter
Nov 6
Full
Nov 14
Last Quarter

Hourly Weather History & Observations

Time (EDT) Temp. Windchill Dew Point Humidity Pressure Visibility Wind Dir Wind Speed Gust Speed Precip Events Conditions
12:53 AM 50.0 °F - 42.1 °F 74% 29.82 in 10.0 mi WNW 8.1 mph - N/A   Overcast
1:39 AM 51.1 °F - 42.1 °F 71% 29.83 in 10.0 mi NNW 9.2 mph - 0.00 in Rain Light Rain
1:48 AM 50.0 °F - 41.0 °F 71% 29.83 in 10.0 mi NNW 12.7 mph - 0.00 in Rain Light Rain
1:53 AM 50.0 °F - 39.9 °F 68% 29.83 in 10.0 mi NNW 16.1 mph 19.6 mph 0.00 in   Overcast
2:53 AM 50.0 °F - 41.0 °F 71% 29.85 in 10.0 mi NW 11.5 mph - N/A   Overcast
3:53 AM 48.9 °F - 39.0 °F 69% 29.87 in 10.0 mi NW 11.5 mph - N/A   Overcast
4:53 AM 48.0 °F - 37.0 °F 66% 29.89 in 10.0 mi NW 11.5 mph - N/A   Mostly Cloudy
5:53 AM 46.9 °F - 36.0 °F 66% 29.91 in 10.0 mi NW 15.0 mph 21.9 mph N/A   Mostly Cloudy
6:53 AM 46.0 °F 40.6 °F 36.0 °F 68% 29.94 in 10.0 mi NW 11.5 mph - N/A   Scattered Clouds
7:53 AM 46.9 °F - 36.0 °F 66% 29.97 in 10.0 mi NW 18.4 mph 24.2 mph N/A   Overcast
8:53 AM 46.9 °F - 35.1 °F 63% 29.99 in 10.0 mi NNW 13.8 mph - N/A   Mostly Cloudy
9:53 AM 48.0 °F - 35.1 °F 61% 30.02 in 10.0 mi NNW 11.5 mph 20.7 mph N/A   Overcast
10:53 AM 46.9 °F - 30.0 °F 52% 30.04 in 10.0 mi NW 19.6 mph 28.8 mph N/A   Mostly Cloudy
11:53 AM 48.0 °F - 28.9 °F 48% 30.04 in 10.0 mi NW 19.6 mph 27.6 mph N/A   Clear
12:53 PM 50.0 °F - 28.9 °F 44% 30.03 in 10.0 mi NW 18.4 mph 27.6 mph N/A   Clear
1:53 PM 52.0 °F - 28.9 °F 41% 30.01 in 10.0 mi NW 19.6 mph 27.6 mph N/A   Clear
2:53 PM 53.1 °F - 28.0 °F 38% 30.01 in 10.0 mi WNW 16.1 mph 26.5 mph N/A   Clear
3:53 PM 53.1 °F - 28.9 °F 40% 30.01 in 10.0 mi WNW 17.3 mph 23.0 mph N/A   Clear
4:53 PM 53.1 °F - 28.0 °F 38% 30.02 in 10.0 mi NW 16.1 mph - N/A   Clear
5:53 PM 51.1 °F - 28.0 °F 41% 30.03 in 10.0 mi NW 9.2 mph - N/A   Clear
6:53 PM 48.9 °F - 28.0 °F 44% 30.04 in 10.0 mi NW 3.5 mph - N/A   Clear
7:53 PM 46.0 °F 44.8 °F 30.9 °F 56% 30.06 in 10.0 mi WNW 3.5 mph - N/A   Clear
8:53 PM 45.0 °F - 32.0 °F 60% 30.07 in 10.0 mi Calm Calm - N/A   Clear
9:53 PM 42.1 °F 40.2 °F 33.1 °F 70% 30.08 in 10.0 mi WSW 3.5 mph - N/A   Clear
10:53 PM 39.9 °F 36.7 °F 33.1 °F 77% 30.08 in 10.0 mi West 4.6 mph - N/A   Clear
11:53 PM 39.9 °F 37.8 °F 33.1 °F 77% 30.09 in 10.0 mi West 3.5 mph - N/A   Clear